Time,TemperatureF,DewpointF,PressureIn,WindDirection,WindDirectionDegrees,WindSpeedMPH,WindSpeedGustMPH,Humidity,HourlyPrecipIn,Conditions,Clouds,dailyrainin,SoftwareType,DateUTC
2013-03-19 00:00:00,31.0,23.1,30.22,SE,140,1.4,5.0,72,0.00,,,0.00,WUHU216DAVISVP2,2013-03-19 04:00:00,
2013-03-19 00:05:00,31.0,23.1,30.22,SE,140,1.0,5.0,72,0.00,,,0.00,WUHU216DAVISVP2,2013-03-19 04:05:00,
2013-03-19 00:10:00,30.9,23.6,30.21,SSE,167,1.0,5.0,74,0.00,,,0.00,WUHU216DAVISVP2,2013-03-19 04:10:00,
2013-03-19 00:15:00,30.8,23.8,30.20,SSE,167,1.0,3.0,75,0.00,,,0.00,WUHU216DAVISVP2,2013-03-19 04:15:00,
2013-03-19 00:20:00,30.6,24.6,30.20,SSE,156,2.0,4.0,78,0.00,,,0.00,WUHU216DAVISVP2,2013-03-19 04:20:00,
2013-03-19 00:25:00,30.4,24.7,30.20,SSE,155,1.0,4.0,79,0.00,,,0.00,WUHU216DAVISVP2,2013-03-19 04:25:00,
2013-03-19 00:30:00,30.2,25.1,30.20,SSE,155,1.0,4.0,81,0.00,,,0.00,WUHU216DAVISVP2,2013-03-19 04:30:00,
2013-03-19 00:35:00,30.0,25.4,30.19,SSE,155,1.0,4.0,83,0.00,,,0.00,WUHU216DAVISVP2,2013-03-19 04:35:00,
2013-03-19 00:40:00,29.8,25.5,30.19,SSE,155,1.0,1.0,84,0.00,,,0.00,WUHU216DAVISVP2,2013-03-19 04:40:00,
2013-03-19 00:45:00,29.6,25.6,30.18,SSE,155,1.3,2.0,85,0.00,,,0.00,WUHU216DAVISVP2,2013-03-19 04:45:00,
2013-03-19 00:50:00,29.4,26.0,30.18,SSE,155,1.0,2.0,87,0.00,,,0.00,WUHU216DAVISVP2,2013-03-19 04:50:00,
2013-03-19 00:55:00,29.3,26.1,30.17,SSE,155,0.0,2.0,88,0.00,,,0.00,WUHU216DAVISVP2,2013-03-19 04:55:00,
2013-03-19 01:00:00,29.2,26.0,30.17,SSE,155,1.0,2.0,88,0.00,,,0.00,WUHU216DAVISVP2,2013-03-19 05:00:00,
2013-03-19 01:05:00,29.0,26.1,30.17,SSE,155,0.0,1.0,89,0.00,,,0.00,WUHU216DAVISVP2,2013-03-19 05:05:00,
2013-03-19 01:10:00,29.0,26.4,30.17,SSE,155,0.0,1.0,90,0.00,,,0.00,WUHU216DAVISVP2,2013-03-19 05:10:00,
2013-03-19 01:15:00,28.9,26.3,30.17,SSE,155,0.0,1.0,90,0.00,,,0.00,WUHU216DAVISVP2,2013-03-19 05:15:00,
2013-03-19 01:20:00,28.9,26.6,30.16,SSE,155,0.0,1.0,91,0.00,,,0.00,WUHU216DAVISVP2,2013-03-19 05:20:00,
2013-03-19 01:25:00,28.8,26.5,30.16,SSE,155,0.0,1.0,91,0.00,,,0.00,WUHU216DAVISVP2,2013-03-19 05:25:00,
2013-03-19 01:30:00,28.8,26.5,30.16,SSE,155,0.0,1.0,91,0.00,,,0.00,WUHU216DAVISVP2,2013-03-19 05:30:00,
2013-03-19 01:35:00,28.7,26.6,30.15,SSE,155,1.0,2.0,92,0.00,,,0.00,WUHU216DAVISVP2,2013-03-19 05:35:00,
2013-03-19 01:40:00,28.6,26.5,30.15,SE,127,2.0,2.0,92,0.00,,,0.00,WUHU216DAVISVP2,2013-03-19 05:40:00,
2013-03-19 01:45:00,28.5,26.4,30.15,SE,127,0.0,2.0,92,0.00,,,0.00,WUHU216DAVISVP2,2013-03-19 05:45:00,
2013-03-19 01:50:00,28.5,26.4,30.15,SE,130,1.0,2.0,92,0.00,,,0.00,WUHU216DAVISVP2,2013-03-19 05:50:00,
2013-03-19 01:55:00,28.4,26.6,30.14,ESE,113,0.0,2.0,93,0.00,,,0.00,WUHU216DAVISVP2,2013-03-19 05:55:00,
2013-03-19 02:00:00,28.4,26.6,30.14,ESE,113,1.0,2.0,93,0.00,,,0.00,WUHU216DAVISVP2,2013-03-19 06:00:00,
2013-03-19 02:05:00,28.3,26.5,30.14,ESE,113,0.0,2.0,93,0.00,,,0.00,WUHU216DAVISVP2,2013-03-19 06:05:00,
2013-03-19 02:10:00,28.3,26.5,30.14,ESE,113,1.0,1.0,93,0.00,,,0.00,WUHU216DAVISVP2,2013-03-19 06:10:00,
2013-03-19 02:15:00,28.3,26.5,30.13,ESE,109,0.0,2.0,93,0.00,,,0.00,WUHU216DAVISVP2,2013-03-19 06:15:00,
2013-03-19 02:20:00,28.3,26.5,30.12,ESE,110,0.0,2.0,93,0.00,,,0.00,WUHU216DAVISVP2,2013-03-19 06:20:00,
2013-03-19 02:25:00,28.2,26.4,30.12,ESE,110,0.0,2.0,93,0.00,,,0.00,WUHU216DAVISVP2,2013-03-19 06:25:00,
2013-03-19 02:30:00,28.2,26.6,30.12,ESE,110,0.0,2.0,94,0.00,,,0.00,WUHU216DAVISVP2,2013-03-19 06:30:00,
2013-03-19 02:35:00,28.2,26.6,30.11,ESE,110,0.0,2.0,94,0.00,,,0.00,WUHU216DAVISVP2,2013-03-19 06:35:00,
2013-03-19 02:40:00,28.2,26.6,30.11,ESE,110,0.0,0.0,94,0.00,,,0.00,WUHU216DAVISVP2,2013-03-19 06:40:00,
2013-03-19 02:45:00,28.2,26.6,30.11,ESE,110,0.0,0.0,94,0.00,,,0.00,WUHU216DAVISVP2,2013-03-19 06:45:00,
2013-03-19 02:50:00,28.2,26.6,30.11,ESE,110,0.0,1.0,94,0.00,,,0.00,WUHU216DAVISVP2,2013-03-19 06:50:00,
2013-03-19 02:55:00,28.1,26.5,30.10,ESE,109,1.0,1.0,94,0.00,,,0.00,WUHU216DAVISVP2,2013-03-19 06:55:00,
2013-03-19 03:00:00,28.1,26.5,30.10,ESE,109,0.0,1.0,94,0.00,,,0.00,WUHU216DAVISVP2,2013-03-19 07:00:00,
2013-03-19 03:05:00,28.1,26.5,30.10,ESE,109,0.0,1.0,94,0.00,,,0.00,WUHU216DAVISVP2,2013-03-19 07:05:00,
2013-03-19 03:10:00,28.0,26.4,30.10,ENE,70,0.0,2.0,94,0.00,,,0.00,WUHU216DAVISVP2,2013-03-19 07:10:00,
2013-03-19 03:15:00,28.0,26.4,30.10,ENE,70,0.0,2.0,94,0.00,,,0.00,WUHU216DAVISVP2,2013-03-19 07:15:00,
2013-03-19 03:20:00,28.0,26.4,30.10,ENE,70,0.0,2.0,94,0.00,,,0.00,WUHU216DAVISVP2,2013-03-19 07:20:00,
2013-03-19 03:25:00,28.0,26.7,30.10,ENE,70,0.0,2.0,95,0.00,,,0.00,WUHU216DAVISVP2,2013-03-19 07:25:00,
2013-03-19 03:30:00,28.0,26.7,30.09,SE,142,0.0,0.0,95,0.00,,,0.00,WUHU216DAVISVP2,2013-03-19 07:30:00,
2013-03-19 03:35:00,28.0,26.7,30.10,SE,142,0.0,0.0,95,0.00,,,0.00,WUHU216DAVISVP2,2013-03-19 07:35:00,
2013-03-19 03:40:00,28.0,26.7,30.09,SE,142,0.0,0.0,95,0.00,,,0.00,WUHU216DAVISVP2,2013-03-19 07:40:00,
2013-03-19 03:45:00,28.0,26.7,30.09,SE,142,0.0,0.0,95,0.00,,,0.00,WUHU216DAVISVP2,2013-03-19 07:45:00,
2013-03-19 03:50:00,28.0,26.7,30.09,East,82,1.0,2.0,95,0.00,,,0.00,WUHU216DAVISVP2,2013-03-19 07:50:00,
2013-03-19 03:55:00,28.0,26.7,30.09,East,82,0.0,2.0,95,0.00,,,0.00,WUHU216DAVISVP2,2013-03-19 07:55:00,
2013-03-19 04:00:00,28.0,26.7,30.09,East,83,0.0,2.0,95,0.00,,,0.00,WUHU216DAVISVP2,2013-03-19 08:00:00,
2013-03-19 04:05:00,28.0,26.7,30.08,East,83,0.0,2.0,95,0.00,,,0.00,WUHU216DAVISVP2,2013-03-19 08:05:00,
2013-03-19 04:10:00,28.0,26.7,30.08,East,83,0.0,0.0,95,0.00,,,0.00,WUHU216DAVISVP2,2013-03-19 08:10:00,
2013-03-19 04:15:00,28.1,26.8,30.08,East,83,0.0,0.0,95,0.00,,,0.00,WUHU216DAVISVP2,2013-03-19 08:15:00,
2013-03-19 04:20:00,28.1,26.8,30.08,East,83,0.0,0.0,95,0.00,,,0.00,WUHU216DAVISVP2,2013-03-19 08:20:00,
2013-03-19 04:25:00,28.1,26.8,30.08,East,83,0.0,0.0,95,0.00,,,0.00,WUHU216DAVISVP2,2013-03-19 08:25:00,
2013-03-19 04:30:00,28.1,26.8,30.08,East,83,0.0,0.0,95,0.00,,,0.00,WUHU216DAVISVP2,2013-03-19 08:30:00,
2013-03-19 04:35:00,28.1,26.8,30.08,East,83,0.0,0.0,95,0.00,,,0.00,WUHU216DAVISVP2,2013-03-19 08:35:00,
2013-03-19 04:40:00,28.2,26.9,30.07,East,83,0.0,0.0,95,0.00,,,0.00,WUHU216DAVISVP2,2013-03-19 08:40:00,
2013-03-19 04:45:00,28.2,26.9,30.07,East,83,0.0,0.0,95,0.00,,,0.00,WUHU216DAVISVP2,2013-03-19 08:45:00,
2013-03-19 04:50:00,28.2,26.9,30.06,East,83,0.0,0.0,95,0.00,,,0.00,WUHU216DAVISVP2,2013-03-19 08:50:00,
2013-03-19 04:55:00,28.3,27.1,30.06,ENE,61,0.0,0.0,95,0.00,,,0.00,WUHU216DAVISVP2,2013-03-19 08:55:00,
2013-03-19 05:00:00,28.3,27.1,30.06,SE,128,0.0,0.0,95,0.00,,,0.00,WUHU216DAVISVP2,2013-03-19 09:00:00,
2013-03-19 05:05:00,28.3,27.1,30.06,SE,128,0.0,0.0,95,0.00,,,0.00,WUHU216DAVISVP2,2013-03-19 09:05:00,
2013-03-19 05:10:00,28.4,27.2,30.05,ENE,69,0.0,0.0,95,0.00,,,0.00,WUHU216DAVISVP2,2013-03-19 09:10:00,
2013-03-19 05:15:00,28.4,27.2,30.05,ENE,69,0.0,0.0,95,0.00,,,0.00,WUHU216DAVISVP2,2013-03-19 09:15:00,
2013-03-19 05:20:00,28.5,27.3,30.05,ENE,69,0.0,0.0,95,0.00,,,0.00,WUHU216DAVISVP2,2013-03-19 09:20:00,
2013-03-19 05:25:00,28.5,27.5,30.05,ENE,69,0.0,0.0,96,0.00,,,0.00,WUHU216DAVISVP2,2013-03-19 09:25:00,
2013-03-19 05:30:00,28.5,27.5,30.05,ENE,69,0.0,0.0,96,0.00,,,0.00,WUHU216DAVISVP2,2013-03-19 09:30:00,
2013-03-19 05:35:00,28.6,27.6,30.06,ENE,69,0.0,0.0,96,0.00,,,0.00,WUHU216DAVISVP2,2013-03-19 09:35:00,
2013-03-19 05:40:00,28.7,27.7,30.05,ENE,69,0.0,0.0,96,0.00,,,0.00,WUHU216DAVISVP2,2013-03-19 09:40:00,
2013-03-19 05:45:00,28.7,27.7,30.05,ENE,69,0.0,0.0,96,0.00,,,0.00,WUHU216DAVISVP2,2013-03-19 09:45:00,
2013-03-19 05:50:00,28.7,27.7,30.05,ENE,69,0.0,0.0,96,0.00,,,0.00,WUHU216DAVISVP2,2013-03-19 09:50:00,
2013-03-19 05:55:00,28.8,27.8,30.05,ENE,69,0.0,0.0,96,0.00,,,0.00,WUHU216DAVISVP2,2013-03-19 09:55:00,
2013-03-19 06:00:00,28.8,27.8,30.05,ENE,69,0.0,0.0,96,0.00,,,0.00,WUHU216DAVISVP2,2013-03-19 10:00:00,
2013-03-19 06:05:00,28.8,27.8,30.05,ENE,69,0.0,0.0,96,0.00,,,0.00,WUHU216DAVISVP2,2013-03-19 10:05:00,
2013-03-19 06:10:00,28.9,27.9,30.05,ENE,69,0.0,0.0,96,0.00,,,0.00,WUHU216DAVISVP2,2013-03-19 10:10:00,
2013-03-19 06:15:00,28.9,27.9,30.04,ENE,69,0.0,0.0,96,0.00,,,0.00,WUHU216DAVISVP2,2013-03-19 10:15:00,
2013-03-19 06:20:00,29.0,28.0,30.05,ENE,69,0.0,0.0,96,0.00,,,0.00,WUHU216DAVISVP2,2013-03-19 10:20:00,
2013-03-19 06:25:00,29.0,28.0,30.04,ENE,69,0.0,0.0,96,0.00,,,0.00,WUHU216DAVISVP2,2013-03-19 10:25:00,
2013-03-19 06:30:00,29.0,28.0,30.05,ENE,69,0.0,0.0,96,0.00,,,0.00,WUHU216DAVISVP2,2013-03-19 10:30:00,
2013-03-19 06:35:00,29.1,28.1,30.04,ENE,69,0.0,0.0,96,0.00,,,0.00,WUHU216DAVISVP2,2013-03-19 10:35:00,
2013-03-19 06:40:00,29.1,28.1,30.04,ENE,69,0.0,0.0,96,0.00,,,0.00,WUHU216DAVISVP2,2013-03-19 10:40:00,
2013-03-19 06:45:00,29.2,28.2,30.04,ENE,69,0.0,0.0,96,0.00,,,0.00,WUHU216DAVISVP2,2013-03-19 10:45:00,
2013-03-19 06:50:00,29.3,28.3,30.03,ENE,69,0.0,0.0,96,0.00,,,0.00,WUHU216DAVISVP2,2013-03-19 10:50:00,
2013-03-19 06:55:00,29.4,28.4,30.03,East,96,0.0,0.0,96,0.00,,,0.00,WUHU216DAVISVP2,2013-03-19 10:55:00,
2013-03-19 07:00:00,29.4,28.4,30.02,SE,134,0.0,0.0,96,0.00,,,0.00,WUHU216DAVISVP2,2013-03-19 11:00:00,
2013-03-19 07:05:00,29.5,28.5,30.02,NNE,19,0.0,0.0,96,0.00,,,0.00,WUHU216DAVISVP2,2013-03-19 11:05:00,
2013-03-19 07:10:00,29.5,28.5,30.02,SE,134,0.0,0.0,96,0.00,,,0.00,WUHU216DAVISVP2,2013-03-19 11:10:00,
2013-03-19 07:15:00,29.6,28.6,30.02,East,94,0.0,0.0,96,0.00,,,0.00,WUHU216DAVISVP2,2013-03-19 11:15:00,
2013-03-19 07:20:00,29.6,28.6,30.02,NE,49,0.0,0.0,96,0.00,,,0.00,WUHU216DAVISVP2,2013-03-19 11:20:00,
2013-03-19 07:25:00,29.6,28.6,30.01,ENE,75,0.0,0.0,96,0.00,,,0.00,WUHU216DAVISVP2,2013-03-19 11:25:00,
2013-03-19 07:30:00,29.7,28.7,30.01,East,81,0.0,0.0,96,0.00,,,0.00,WUHU216DAVISVP2,2013-03-19 11:30:00,
2013-03-19 07:35:00,29.7,28.7,30.01,East,92,0.0,0.0,96,0.00,,,0.00,WUHU216DAVISVP2,2013-03-19 11:35:00,
2013-03-19 07:40:00,29.8,28.8,30.01,SE,126,0.0,0.0,96,0.00,,,0.00,WUHU216DAVISVP2,2013-03-19 11:40:00,
2013-03-19 07:45:00,29.8,28.8,30.01,SE,126,0.0,0.0,96,0.00,,,0.00,WUHU216DAVISVP2,2013-03-19 11:45:00,
2013-03-19 07:50:00,29.8,28.8,30.00,East,100,0.0,0.0,96,0.00,,,0.00,WUHU216DAVISVP2,2013-03-19 11:50:00,
2013-03-19 07:55:00,29.9,28.9,30.00,East,99,0.0,0.0,96,0.00,,,0.00,WUHU216DAVISVP2,2013-03-19 11:55:00,
2013-03-19 08:00:00,29.9,28.9,30.00,East,99,0.0,0.0,96,0.00,,,0.00,WUHU216DAVISVP2,2013-03-19 12:00:00,
2013-03-19 08:05:00,30.0,29.0,29.99,East,94,0.0,0.0,96,0.00,,,0.00,WUHU216DAVISVP2,2013-03-19 12:05:00,
2013-03-19 08:10:00,30.1,29.1,29.99,NE,46,0.0,0.0,96,0.00,,,0.00,WUHU216DAVISVP2,2013-03-19 12:10:00,
2013-03-19 08:15:00,30.1,29.1,29.99,East,84,0.0,0.0,96,0.00,,,0.00,WUHU216DAVISVP2,2013-03-19 12:15:00,
2013-03-19 08:20:00,30.2,29.2,29.99,ENE,76,0.0,0.0,96,0.00,,,0.00,WUHU216DAVISVP2,2013-03-19 12:20:00,
2013-03-19 08:25:00,30.2,29.2,29.98,NE,44,0.0,0.0,96,0.00,,,0.00,WUHU216DAVISVP2,2013-03-19 12:25:00,
2013-03-19 08:30:00,30.3,29.3,29.98,ESE,109,0.0,0.0,96,0.00,,,0.00,WUHU216DAVISVP2,2013-03-19 12:30:00,
2013-03-19 08:35:00,30.4,29.4,29.98,ENE,71,0.0,0.0,96,0.00,,,0.00,WUHU216DAVISVP2,2013-03-19 12:35:00,
2013-03-19 08:40:00,30.5,29.5,29.97,ENE,71,0.0,0.0,96,0.00,,,0.00,WUHU216DAVISVP2,2013-03-19 12:40:00,
2013-03-19 08:45:00,30.5,29.5,29.97,ESE,113,0.0,0.0,96,0.00,,,0.00,WUHU216DAVISVP2,2013-03-19 12:45:00,
2013-03-19 08:50:00,30.6,29.6,29.97,ESE,113,0.0,0.0,96,0.00,,,0.00,WUHU216DAVISVP2,2013-03-19 12:50:00,
2013-03-19 08:55:00,30.7,29.7,29.97,East,82,0.0,0.0,96,0.00,,,0.00,WUHU216DAVISVP2,2013-03-19 12:55:00,
2013-03-19 09:00:00,30.8,29.8,29.96,ESE,104,0.0,0.0,96,0.00,,,0.00,WUHU216DAVISVP2,2013-03-19 13:00:00,
2013-03-19 09:05:00,31.0,30.0,29.96,ENE,75,0.0,0.0,96,0.00,,,0.00,WUHU216DAVISVP2,2013-03-19 13:05:00,
2013-03-19 09:10:00,31.0,30.0,29.96,ENE,70,0.0,0.0,96,0.00,,,0.00,WUHU216DAVISVP2,2013-03-19 13:10:00,
2013-03-19 09:15:00,31.1,30.1,29.96,NE,51,0.0,0.0,96,0.00,,,0.00,WUHU216DAVISVP2,2013-03-19 13:15:00,
2013-03-19 09:20:00,31.2,30.2,29.96,ENE,69,0.0,0.0,96,0.00,,,0.00,WUHU216DAVISVP2,2013-03-19 13:20:00,
2013-03-19 09:25:00,31.2,30.2,29.96,ENE,67,0.0,0.0,96,0.00,,,0.00,WUHU216DAVISVP2,2013-03-19 13:25:00,
2013-03-19 09:30:00,31.3,30.3,29.95,ESE,105,0.0,0.0,96,0.00,,,0.00,WUHU216DAVISVP2,2013-03-19 13:30:00,
2013-03-19 09:35:00,31.3,30.3,29.95,East,84,1.1,2.0,96,0.00,,,0.00,WUHU216DAVISVP2,2013-03-19 13:35:00,
2013-03-19 09:40:00,31.3,30.3,29.95,ENE,57,2.0,3.0,96,0.00,,,0.00,WUHU216DAVISVP2,2013-03-19 13:40:00,
2013-03-19 09:45:00,31.3,30.3,29.95,ENE,71,1.4,3.0,96,0.00,,,0.00,WUHU216DAVISVP2,2013-03-19 13:45:00,
2013-03-19 09:50:00,31.4,30.4,29.95,SSE,151,1.6,4.0,96,0.00,,,0.00,WUHU216DAVISVP2,2013-03-19 13:50:00,
2013-03-19 09:55:00,31.4,30.4,29.94,ESE,123,1.0,4.0,96,0.00,,,0.00,WUHU216DAVISVP2,2013-03-19 13:55:00,
2013-03-19 10:00:00,31.5,30.5,29.94,ESE,112,2.0,4.0,96,0.00,,,0.00,WUHU216DAVISVP2,2013-03-19 14:00:00,
2013-03-19 10:05:00,31.5,30.5,29.94,NNE,29,0.0,4.0,96,0.00,,,0.00,WUHU216DAVISVP2,2013-03-19 14:05:00,
2013-03-19 10:10:00,31.6,30.6,29.94,NE,49,1.0,4.0,96,0.00,,,0.00,WUHU216DAVISVP2,2013-03-19 14:10:00,
2013-03-19 10:15:00,31.7,30.7,29.94,SE,145,1.0,3.0,96,0.00,,,0.00,WUHU216DAVISVP2,2013-03-19 14:15:00,
2013-03-19 10:20:00,31.7,30.7,29.93,ENE,76,0.0,3.0,96,0.00,,,0.00,WUHU216DAVISVP2,2013-03-19 14:20:00,
2013-03-19 10:25:00,31.7,30.7,29.93,ESE,116,1.1,3.0,96,0.00,,,0.00,WUHU216DAVISVP2,2013-03-19 14:25:00,
2013-03-19 10:30:00,31.7,30.7,29.93,ESE,109,1.3,3.0,96,0.00,,,0.00,WUHU216DAVISVP2,2013-03-19 14:30:00,
2013-03-19 10:35:00,31.7,30.7,29.92,NE,53,3.0,3.0,96,0.00,,,0.00,WUHU216DAVISVP2,2013-03-19 14:35:00,
2013-03-19 10:40:00,31.6,30.6,29.92,NNE,13,2.0,7.0,96,0.00,,,0.00,WUHU216DAVISVP2,2013-03-19 14:40:00,
2013-03-19 10:45:00,31.6,30.6,29.91,East,93,1.6,7.0,96,0.00,,,0.00,WUHU216DAVISVP2,2013-03-19 14:45:00,
2013-03-19 10:50:00,31.6,30.6,29.92,East,95,1.4,7.0,96,0.00,,,0.00,WUHU216DAVISVP2,2013-03-19 14:50:00,
2013-03-19 10:55:00,31.7,30.7,29.91,ESE,113,1.5,5.0,96,0.00,,,0.00,WUHU216DAVISVP2,2013-03-19 14:55:00,
2013-03-19 11:00:00,31.8,30.8,29.91,NE,44,1.0,4.0,96,0.00,,,0.00,WUHU216DAVISVP2,2013-03-19 15:00:00,
2013-03-19 11:05:00,31.9,30.9,29.91,East,83,2.0,5.0,96,0.00,,,0.00,WUHU216DAVISVP2,2013-03-19 15:05:00,
2013-03-19 11:10:00,32.0,31.0,29.89,ENE,77,1.2,5.0,96,0.00,,,0.00,WUHU216DAVISVP2,2013-03-19 15:10:00,
2013-03-19 11:15:00,32.2,31.4,29.89,East,89,1.0,4.0,97,0.00,,,0.00,WUHU216DAVISVP2,2013-03-19 15:15:00,
2013-03-19 11:20:00,32.2,31.1,29.89,East,85,1.2,4.0,96,0.00,,,0.00,WUHU216DAVISVP2,2013-03-19 15:20:00,
2013-03-19 11:25:00,32.3,31.2,29.89,East,87,2.0,3.0,96,0.00,,,0.00,WUHU216DAVISVP2,2013-03-19 15:25:00,
2013-03-19 11:30:00,32.3,31.2,29.88,East,88,1.0,3.0,96,0.00,,,0.00,WUHU216DAVISVP2,2013-03-19 15:30:00,
2013-03-19 11:35:00,32.5,31.4,29.88,East,89,1.5,3.0,96,0.00,,,0.00,WUHU216DAVISVP2,2013-03-19 15:35:00,
2013-03-19 11:40:00,32.6,31.8,29.88,SE,124,1.4,2.0,97,0.00,,,0.00,WUHU216DAVISVP2,2013-03-19 15:40:00,
2013-03-19 11:45:00,32.6,31.5,29.88,NE,51,2.0,4.0,96,0.00,,,0.00,WUHU216DAVISVP2,2013-03-19 15:45:00,
2013-03-19 11:50:00,32.6,31.5,29.87,North,9,4.0,5.0,96,0.00,,,0.00,WUHU216DAVISVP2,2013-03-19 15:50:00,
2013-03-19 11:55:00,32.7,31.6,29.88,East,94,1.0,5.0,96,0.00,,,0.00,WUHU216DAVISVP2,2013-03-19 15:55:00,
2013-03-19 12:00:00,32.7,31.6,29.87,East,97,5.0,9.0,96,0.00,,,0.00,WUHU216DAVISVP2,2013-03-19 16:00:00,
2013-03-19 12:05:00,32.6,31.5,29.86,ESE,111,2.0,9.0,96,0.00,,,0.00,WUHU216DAVISVP2,2013-03-19 16:05:00,
2013-03-19 12:10:00,32.7,31.6,29.85,ESE,104,2.6,9.0,96,0.00,,,0.00,WUHU216DAVISVP2,2013-03-19 16:10:00,
2013-03-19 12:15:00,32.9,31.8,29.84,SE,140,3.0,9.0,96,0.00,,,0.00,WUHU216DAVISVP2,2013-03-19 16:15:00,
2013-03-19 12:20:00,33.1,32.0,29.84,ESE,116,1.9,9.0,96,0.00,,,0.00,WUHU216DAVISVP2,2013-03-19 16:20:00,
2013-03-19 12:25:00,33.0,31.9,29.84,NNE,33,4.3,8.0,96,0.00,,,0.00,WUHU216DAVISVP2,2013-03-19 16:25:00,
2013-03-19 12:30:00,33.0,31.9,29.85,ESE,117,2.4,8.0,96,0.01,,,0.01,WUHU216DAVISVP2,2013-03-19 16:30:00,
2013-03-19 12:35:00,33.0,31.7,29.84,East,79,5.0,8.0,95,0.01,,,0.01,WUHU216DAVISVP2,2013-03-19 16:35:00,
2013-03-19 12:40:00,33.0,31.9,29.83,SE,127,3.0,8.0,96,0.01,,,0.01,WUHU216DAVISVP2,2013-03-19 16:40:00,
2013-03-19 12:45:00,33.0,31.7,29.83,SE,139,3.1,6.0,95,0.01,,,0.01,WUHU216DAVISVP2,2013-03-19 16:45:00,
2013-03-19 12:50:00,32.9,31.6,29.83,NE,42,5.0,8.0,95,0.01,,,0.01,WUHU216DAVISVP2,2013-03-19 16:50:00,
2013-03-19 12:55:00,32.9,31.6,29.83,NE,50,2.5,8.0,95,0.01,,,0.01,WUHU216DAVISVP2,2013-03-19 16:55:00,
2013-03-19 13:00:00,32.9,31.6,29.83,East,100,3.0,8.0,95,0.01,,,0.01,WUHU216DAVISVP2,2013-03-19 17:00:00,
2013-03-19 13:05:00,32.9,31.6,29.82,NE,38,6.0,8.0,95,0.01,,,0.01,WUHU216DAVISVP2,2013-03-19 17:05:00,
2013-03-19 13:10:00,32.9,31.6,29.82,SE,127,1.5,8.0,95,0.01,,,0.01,WUHU216DAVISVP2,2013-03-19 17:10:00,
2013-03-19 13:15:00,33.0,31.7,29.82,NE,46,1.6,8.0,95,0.01,,,0.01,WUHU216DAVISVP2,2013-03-19 17:15:00,
2013-03-19 13:20:00,33.0,31.9,29.81,SE,126,2.0,8.0,96,0.01,,,0.01,WUHU216DAVISVP2,2013-03-19 17:20:00,
2013-03-19 13:25:00,32.9,31.6,29.81,East,86,2.9,8.0,95,0.01,,,0.01,WUHU216DAVISVP2,2013-03-19 17:25:00,
2013-03-19 13:30:00,32.9,31.6,29.80,SE,128,3.0,8.0,95,0.00,,,0.01,WUHU216DAVISVP2,2013-03-19 17:30:00,
2013-03-19 13:35:00,32.9,31.6,29.80,ENE,78,2.1,8.0,95,0.00,,,0.01,WUHU216DAVISVP2,2013-03-19 17:35:00,
2013-03-19 13:40:00,32.8,31.5,29.80,East,92,2.0,8.0,95,0.01,,,0.02,WUHU216DAVISVP2,2013-03-19 17:40:00,
2013-03-19 13:45:00,32.8,31.5,29.80,East,98,2.1,5.0,95,0.01,,,0.02,WUHU216DAVISVP2,2013-03-19 17:45:00,
2013-03-19 13:50:00,32.7,31.6,29.80,NE,54,3.0,5.0,96,0.01,,,0.02,WUHU216DAVISVP2,2013-03-19 17:50:00,
2013-03-19 13:55:00,32.6,31.5,29.81,NNE,13,1.3,5.0,96,0.01,,,0.02,WUHU216DAVISVP2,2013-03-19 17:55:00,
2013-03-19 14:00:00,32.6,31.5,29.81,North,5,1.8,5.0,96,0.01,,,0.02,WUHU216DAVISVP2,2013-03-19 18:00:00,
2013-03-19 14:05:00,32.6,31.5,29.81,North,5,0.0,4.0,96,0.01,,,0.02,WUHU216DAVISVP2,2013-03-19 18:05:00,
2013-03-19 14:10:00,32.6,31.5,29.82,NE,37,2.3,5.0,96,0.01,,,0.02,WUHU216DAVISVP2,2013-03-19 18:10:00,
2013-03-19 14:15:00,32.6,31.5,29.83,NNW,339,1.3,5.0,96,0.01,,,0.02,WUHU216DAVISVP2,2013-03-19 18:15:00,
2013-03-19 14:20:00,32.6,31.5,29.83,NW,314,1.9,5.0,96,0.01,,,0.02,WUHU216DAVISVP2,2013-03-19 18:20:00,
2013-03-19 14:25:00,32.6,31.5,29.84,NW,321,1.0,5.0,96,0.01,,,0.02,WUHU216DAVISVP2,2013-03-19 18:25:00,
2013-03-19 14:30:00,32.6,31.5,29.84,NW,324,1.1,3.0,96,0.01,,,0.02,WUHU216DAVISVP2,2013-03-19 18:30:00,
2013-03-19 14:35:00,32.5,31.4,29.83,NE,50,2.0,3.0,96,0.01,,,0.02,WUHU216DAVISVP2,2013-03-19 18:35:00,
2013-03-19 14:40:00,32.5,31.4,29.82,NE,49,2.0,3.0,96,0.00,,,0.02,WUHU216DAVISVP2,2013-03-19 18:40:00,
2013-03-19 14:45:00,32.4,31.3,29.81,ENE,60,4.0,5.0,96,0.00,,,0.02,WUHU216DAVISVP2,2013-03-19 18:45:00,
2013-03-19 14:50:00,32.3,31.2,29.81,ENE,76,2.0,6.0,96,0.00,,,0.02,WUHU216DAVISVP2,2013-03-19 18:50:00,
2013-03-19 14:55:00,32.3,31.5,29.81,ENE,75,1.0,6.0,97,0.00,,,0.02,WUHU216DAVISVP2,2013-03-19 18:55:00,
2013-03-19 15:00:00,32.2,31.4,29.80,ENE,73,2.0,6.0,97,0.00,,,0.02,WUHU216DAVISVP2,2013-03-19 19:00:00,
2013-03-19 15:05:00,32.2,31.4,29.80,NE,54,2.0,5.0,97,0.00,,,0.02,WUHU216DAVISVP2,2013-03-19 19:05:00,
2013-03-19 15:10:00,32.1,31.3,29.80,NE,38,2.4,5.0,97,0.00,,,0.02,WUHU216DAVISVP2,2013-03-19 19:10:00,
2013-03-19 15:15:00,32.1,31.3,29.80,NE,50,2.2,5.0,97,0.00,,,0.02,WUHU216DAVISVP2,2013-03-19 19:15:00,
2013-03-19 15:20:00,32.1,31.3,29.79,ENE,77,0.0,5.0,97,0.00,,,0.02,WUHU216DAVISVP2,2013-03-19 19:20:00,
2013-03-19 15:25:00,32.1,31.3,29.79,ESE,120,1.5,5.0,97,0.00,,,0.02,WUHU216DAVISVP2,2013-03-19 19:25:00,
2013-03-19 15:30:00,32.1,31.3,29.78,ESE,111,1.0,5.0,97,0.00,,,0.02,WUHU216DAVISVP2,2013-03-19 19:30:00,
2013-03-19 15:35:00,32.0,31.2,29.77,NE,46,1.3,3.0,97,0.00,,,0.02,WUHU216DAVISVP2,2013-03-19 19:35:00,
2013-03-19 15:40:00,31.9,31.1,29.77,ENE,74,1.2,3.0,97,0.00,,,0.02,WUHU216DAVISVP2,2013-03-19 19:40:00,
2013-03-19 15:45:00,31.9,31.1,29.75,ENE,67,1.3,3.0,97,0.00,,,0.02,WUHU216DAVISVP2,2013-03-19 19:45:00,
2013-03-19 15:50:00,31.9,31.1,29.74,East,83,1.9,3.0,97,0.00,,,0.02,WUHU216DAVISVP2,2013-03-19 19:50:00,
2013-03-19 15:55:00,31.8,31.0,29.72,East,94,1.8,3.0,97,0.00,,,0.02,WUHU216DAVISVP2,2013-03-19 19:55:00,
2013-03-19 16:00:00,31.7,30.9,29.71,East,81,1.9,4.0,97,0.00,,,0.02,WUHU216DAVISVP2,2013-03-19 20:00:00,
2013-03-19 16:05:00,31.6,30.8,29.69,NE,51,1.2,4.0,97,0.00,,,0.02,WUHU216DAVISVP2,2013-03-19 20:05:00,
2013-03-19 16:10:00,31.6,30.8,29.70,NE,49,2.0,4.0,97,0.00,,,0.02,WUHU216DAVISVP2,2013-03-19 20:10:00,
2013-03-19 16:15:00,31.6,30.8,29.72,NNE,33,1.0,4.0,97,0.01,,,0.03,WUHU216DAVISVP2,2013-03-19 20:15:00,
2013-03-19 16:20:00,31.7,30.9,29.71,ENE,57,1.0,4.0,97,0.01,,,0.03,WUHU216DAVISVP2,2013-03-19 20:20:00,
2013-03-19 16:25:00,31.7,30.9,29.70,East,84,0.0,4.0,97,0.01,,,0.03,WUHU216DAVISVP2,2013-03-19 20:25:00,
2013-03-19 16:30:00,31.8,31.0,29.70,NNE,30,2.5,4.0,97,0.01,,,0.03,WUHU216DAVISVP2,2013-03-19 20:30:00,
2013-03-19 16:35:00,31.8,31.0,29.70,NNE,32,1.4,4.0,97,0.01,,,0.03,WUHU216DAVISVP2,2013-03-19 20:35:00,
2013-03-19 16:40:00,31.9,31.1,29.70,NNE,26,1.2,4.0,97,0.01,,,0.03,WUHU216DAVISVP2,2013-03-19 20:40:00,
2013-03-19 16:45:00,31.8,31.0,29.70,ENE,58,0.0,4.0,97,0.01,,,0.03,WUHU216DAVISVP2,2013-03-19 20:45:00,
2013-03-19 16:50:00,31.7,30.9,29.70,NE,44,3.0,4.0,97,0.01,,,0.03,WUHU216DAVISVP2,2013-03-19 20:50:00,
2013-03-19 16:55:00,31.7,30.9,29.70,ENE,57,1.0,3.0,97,0.01,,,0.03,WUHU216DAVISVP2,2013-03-19 20:55:00,
2013-03-19 17:00:00,31.6,30.8,29.70,NE,53,1.0,3.0,97,0.01,,,0.03,WUHU216DAVISVP2,2013-03-19 21:00:00,
2013-03-19 17:05:00,31.6,30.8,29.70,NE,36,1.5,3.0,97,0.01,,,0.03,WUHU216DAVISVP2,2013-03-19 21:05:00,
2013-03-19 17:10:00,31.6,30.8,29.70,NE,36,1.4,3.0,97,0.01,,,0.03,WUHU216DAVISVP2,2013-03-19 21:10:00,
2013-03-19 17:15:00,31.4,30.4,29.70,NE,39,2.6,5.0,96,0.00,,,0.03,WUHU216DAVISVP2,2013-03-19 21:15:00,
2013-03-19 17:20:00,31.4,30.4,29.70,NE,50,1.0,5.0,96,0.00,,,0.03,WUHU216DAVISVP2,2013-03-19 21:20:00,
2013-03-19 17:25:00,31.4,30.4,29.70,ENE,67,2.0,5.0,96,0.00,,,0.03,WUHU216DAVISVP2,2013-03-19 21:25:00,
2013-03-19 17:30:00,31.3,30.3,29.70,NE,38,1.3,5.0,96,0.00,,,0.03,WUHU216DAVISVP2,2013-03-19 21:30:00,
2013-03-19 17:35:00,31.2,30.2,29.70,NE,43,2.8,6.0,96,0.00,,,0.03,WUHU216DAVISVP2,2013-03-19 21:35:00,
2013-03-19 17:40:00,31.1,30.1,29.70,ENE,67,1.2,6.0,96,0.00,,,0.03,WUHU216DAVISVP2,2013-03-19 21:40:00,
2013-03-19 17:45:00,31.1,30.1,29.70,NNE,22,1.3,6.0,96,0.00,,,0.03,WUHU216DAVISVP2,2013-03-19 21:45:00,
2013-03-19 17:50:00,31.0,30.0,29.70,NNE,30,2.0,6.0,96,0.00,,,0.03,WUHU216DAVISVP2,2013-03-19 21:50:00,
2013-03-19 17:55:00,31.0,30.0,29.70,NNE,33,1.3,4.0,96,0.00,,,0.03,WUHU216DAVISVP2,2013-03-19 21:55:00,
2013-03-19 18:00:00,30.9,29.9,29.70,NE,40,3.0,3.0,96,0.00,,,0.03,WUHU216DAVISVP2,2013-03-19 22:00:00,
2013-03-19 18:05:00,30.8,29.8,29.69,NE,42,0.0,3.0,96,0.00,,,0.03,WUHU216DAVISVP2,2013-03-19 22:05:00,
2013-03-19 18:10:00,30.8,29.8,29.69,NE,42,0.0,3.0,96,0.00,,,0.03,WUHU216DAVISVP2,2013-03-19 22:10:00,
2013-03-19 18:15:00,30.7,29.4,29.68,NE,42,1.1,3.0,95,0.00,,,0.03,WUHU216DAVISVP2,2013-03-19 22:15:00,
2013-03-19 18:20:00,30.6,29.3,29.68,North,1,1.7,3.0,95,0.00,,,0.03,WUHU216DAVISVP2,2013-03-19 22:20:00,
2013-03-19 18:25:00,30.6,29.3,29.69,ENE,66,3.0,3.0,95,0.00,,,0.03,WUHU216DAVISVP2,2013-03-19 22:25:00,
2013-03-19 18:30:00,30.5,29.2,29.69,NE,48,1.7,3.0,95,0.00,,,0.03,WUHU216DAVISVP2,2013-03-19 22:30:00,
2013-03-19 18:35:00,30.5,29.2,29.69,NE,42,2.0,3.0,95,0.00,,,0.03,WUHU216DAVISVP2,2013-03-19 22:35:00,
2013-03-19 18:40:00,30.4,29.1,29.69,NE,48,2.3,4.0,95,0.00,,,0.03,WUHU216DAVISVP2,2013-03-19 22:40:00,
2013-03-19 18:45:00,30.3,29.0,29.69,NE,55,1.5,4.0,95,0.00,,,0.03,WUHU216DAVISVP2,2013-03-19 22:45:00,
2013-03-19 18:50:00,30.3,29.0,29.69,NNE,31,2.5,4.0,95,0.00,,,0.03,WUHU216DAVISVP2,2013-03-19 22:50:00,
2013-03-19 18:55:00,30.2,28.9,29.69,NE,37,2.3,6.0,95,0.00,,,0.03,WUHU216DAVISVP2,2013-03-19 22:55:00,
2013-03-19 19:00:00,30.1,28.8,29.69,ENE,67,1.0,6.0,95,0.00,,,0.03,WUHU216DAVISVP2,2013-03-19 23:00:00,
2013-03-19 19:05:00,30.0,28.7,29.69,ENE,57,1.6,6.0,95,0.00,,,0.03,WUHU216DAVISVP2,2013-03-19 23:05:00,
2013-03-19 19:10:00,29.9,28.6,29.69,North,11,1.0,4.0,95,0.00,,,0.03,WUHU216DAVISVP2,2013-03-19 23:10:00,
2013-03-19 19:15:00,29.8,28.5,29.70,North,10,2.1,6.0,95,0.00,,,0.03,WUHU216DAVISVP2,2013-03-19 23:15:00,
2013-03-19 19:21:00,29.7,28.4,29.70,North,8,1.8,6.0,95,0.00,,,0.03,WUHU216DAVISVP2,2013-03-19 23:21:00,
2013-03-19 19:25:00,29.7,28.4,29.70,NE,47,1.0,6.0,95,0.00,,,0.03,WUHU216DAVISVP2,2013-03-19 23:25:00,
2013-03-19 19:31:00,29.5,28.2,29.70,NNE,26,4.0,6.0,95,0.00,,,0.03,WUHU216DAVISVP2,2013-03-19 23:31:00,
2013-03-19 19:36:00,29.4,28.1,29.70,North,353,1.9,6.0,95,0.00,,,0.03,WUHU216DAVISVP2,2013-03-19 23:36:00,
2013-03-19 19:41:00,29.4,28.4,29.70,NNW,344,1.0,6.0,96,0.00,,,0.03,WUHU216DAVISVP2,2013-03-19 23:41:00,
2013-03-19 19:46:00,29.2,28.2,29.70,NNW,344,1.7,6.0,96,0.00,,,0.03,WUHU216DAVISVP2,2013-03-19 23:46:00,
2013-03-19 19:51:00,29.1,28.1,29.70,North,6,2.0,6.0,96,0.00,,,0.03,WUHU216DAVISVP2,2013-03-19 23:51:00,
2013-03-19 19:56:00,29.1,28.1,29.70,North,360,2.0,4.0,96,0.00,,,0.03,WUHU216DAVISVP2,2013-03-19 23:56:00,
2013-03-19 20:01:00,29.0,28.0,29.70,North,8,2.8,5.0,96,0.00,,,0.03,WUHU216DAVISVP2,2013-03-20 00:01:00,
2013-03-19 20:06:00,28.9,27.9,29.70,NNE,13,1.5,6.0,96,0.00,,,0.03,WUHU216DAVISVP2,2013-03-20 00:06:00,
2013-03-19 20:11:00,28.8,27.5,29.70,North,5,1.0,6.0,95,0.00,,,0.03,WUHU216DAVISVP2,2013-03-20 00:11:00,
2013-03-19 20:16:00,28.7,27.4,29.70,North,9,1.4,6.0,95,0.00,,,0.03,WUHU216DAVISVP2,2013-03-20 00:16:00,
2013-03-19 20:21:00,28.7,27.7,29.69,NNE,30,1.8,6.0,96,0.00,,,0.03,WUHU216DAVISVP2,2013-03-20 00:21:00,
2013-03-19 20:26:00,28.6,27.3,29.69,NNE,32,1.0,6.0,95,0.00,,,0.03,WUHU216DAVISVP2,2013-03-20 00:26:00,
2013-03-19 20:31:00,28.4,27.1,29.69,NNE,21,1.5,6.0,95,0.00,,,0.03,WUHU216DAVISVP2,2013-03-20 00:31:00,
2013-03-19 20:36:00,28.3,27.0,29.69,North,355,3.0,6.0,95,0.00,,,0.03,WUHU216DAVISVP2,2013-03-20 00:36:00,
2013-03-19 20:41:00,28.2,26.9,29.69,North,355,1.9,6.0,95,0.00,,,0.03,WUHU216DAVISVP2,2013-03-20 00:41:00,
2013-03-19 20:46:00,28.1,26.8,29.69,North,358,2.7,5.0,95,0.00,,,0.03,WUHU216DAVISVP2,2013-03-20 00:46:00,
2013-03-19 20:51:00,27.9,26.6,29.69,NNE,27,1.4,5.0,95,0.00,,,0.03,WUHU216DAVISVP2,2013-03-20 00:51:00,
2013-03-19 20:56:00,27.7,26.2,29.70,North,11,1.1,5.0,94,0.00,,,0.03,WUHU216DAVISVP2,2013-03-20 00:56:00,
2013-03-19 21:01:00,27.6,26.3,29.71,NNW,340,1.6,5.0,95,0.00,,,0.03,WUHU216DAVISVP2,2013-03-20 01:01:00,
2013-03-19 21:06:00,27.4,25.9,29.71,NNE,16,1.7,5.0,94,0.00,,,0.03,WUHU216DAVISVP2,2013-03-20 01:06:00,
2013-03-19 21:11:00,27.2,25.7,29.71,North,0,1.5,5.0,94,0.00,,,0.03,WUHU216DAVISVP2,2013-03-20 01:11:00,
2013-03-19 21:16:00,27.0,25.5,29.72,North,351,2.6,6.0,94,0.00,,,0.03,WUHU216DAVISVP2,2013-03-20 01:16:00,
2013-03-19 21:21:00,26.9,25.4,29.72,NNW,338,1.3,6.0,94,0.00,,,0.03,WUHU216DAVISVP2,2013-03-20 01:21:00,
2013-03-19 21:26:00,26.7,24.9,29.72,NNE,30,5.0,7.0,93,0.00,,,0.03,WUHU216DAVISVP2,2013-03-20 01:26:00,
2013-03-19 21:31:00,26.5,24.7,29.72,NNW,337,4.0,7.0,93,0.00,,,0.03,WUHU216DAVISVP2,2013-03-20 01:31:00,
2013-03-19 21:36:00,26.3,24.2,29.72,NNE,24,3.7,7.0,92,0.00,,,0.03,WUHU216DAVISVP2,2013-03-20 01:36:00,
2013-03-19 21:41:00,26.1,24.0,29.72,NNE,28,1.0,7.0,92,0.00,,,0.03,WUHU216DAVISVP2,2013-03-20 01:41:00,
2013-03-19 21:46:00,26.0,24.2,29.73,North,360,0.0,7.0,93,0.00,,,0.03,WUHU216DAVISVP2,2013-03-20 01:46:00,
2013-03-19 21:51:00,26.0,24.2,29.73,NNE,15,3.0,7.0,93,0.00,,,0.03,WUHU216DAVISVP2,2013-03-20 01:51:00,
2013-03-19 21:56:00,25.9,24.1,29.73,North,360,2.0,6.0,93,0.00,,,0.03,WUHU216DAVISVP2,2013-03-20 01:56:00,
2013-03-19 22:01:00,25.8,24.0,29.73,North,360,0.0,6.0,93,0.00,,,0.03,WUHU216DAVISVP2,2013-03-20 02:01:00,
2013-03-19 22:06:00,25.8,24.3,29.72,North,360,0.0,5.0,94,0.00,,,0.03,WUHU216DAVISVP2,2013-03-20 02:06:00,
2013-03-19 22:11:00,25.8,24.3,29.72,North,360,0.0,5.0,94,0.00,,,0.03,WUHU216DAVISVP2,2013-03-20 02:11:00,
2013-03-19 22:16:00,25.8,24.5,29.72,North,360,0.0,3.0,95,0.00,,,0.03,WUHU216DAVISVP2,2013-03-20 02:16:00,
2013-03-19 22:21:00,25.8,24.5,29.72,North,355,1.0,1.0,95,0.00,,,0.03,WUHU216DAVISVP2,2013-03-20 02:21:00,
2013-03-19 22:26:00,25.8,24.5,29.72,NNW,330,2.0,4.0,95,0.00,,,0.03,WUHU216DAVISVP2,2013-03-20 02:26:00,
2013-03-19 22:31:00,25.7,24.4,29.72,NNE,13,1.8,4.0,95,0.00,,,0.03,WUHU216DAVISVP2,2013-03-20 02:31:00,
2013-03-19 22:36:00,25.6,24.1,29.72,North,4,1.7,4.0,94,0.00,,,0.03,WUHU216DAVISVP2,2013-03-20 02:36:00,
2013-03-19 22:41:00,25.5,24.2,29.72,North,5,1.5,4.0,95,0.00,,,0.03,WUHU216DAVISVP2,2013-03-20 02:41:00,
2013-03-19 22:46:00,25.5,24.2,29.72,North,5,0.0,3.0,95,0.00,,,0.03,WUHU216DAVISVP2,2013-03-20 02:46:00,
2013-03-19 22:51:00,25.5,24.2,29.72,North,5,0.0,3.0,95,0.00,,,0.03,WUHU216DAVISVP2,2013-03-20 02:51:00,
2013-03-19 22:56:00,25.4,24.1,29.72,North,5,0.0,2.0,95,0.00,,,0.03,WUHU216DAVISVP2,2013-03-20 02:56:00,
2013-03-19 23:01:00,25.3,24.0,29.72,North,5,0.0,1.0,95,0.00,,,0.03,WUHU216DAVISVP2,2013-03-20 03:01:00,
2013-03-19 23:06:00,25.3,24.0,29.72,North,5,0.0,0.0,95,0.00,,,0.03,WUHU216DAVISVP2,2013-03-20 03:06:00,
2013-03-19 23:11:00,25.3,24.0,29.72,North,5,0.0,0.0,95,0.00,,,0.03,WUHU216DAVISVP2,2013-03-20 03:11:00,
2013-03-19 23:16:00,25.3,24.0,29.72,North,5,0.0,0.0,95,0.00,,,0.03,WUHU216DAVISVP2,2013-03-20 03:16:00,
2013-03-19 23:21:00,25.3,24.0,29.72,North,5,0.0,0.0,95,0.00,,,0.03,WUHU216DAVISVP2,2013-03-20 03:21:00,
2013-03-19 23:26:00,25.2,23.9,29.71,North,5,0.0,0.0,95,0.00,,,0.03,WUHU216DAVISVP2,2013-03-20 03:26:00,
2013-03-19 23:31:00,25.2,23.9,29.71,NNE,16,0.0,0.0,95,0.00,,,0.03,WUHU216DAVISVP2,2013-03-20 03:31:00,
2013-03-19 23:36:00,25.2,23.9,29.71,NNE,16,0.0,0.0,95,0.00,,,0.03,WUHU216DAVISVP2,2013-03-20 03:36:00,
2013-03-19 23:41:00,25.1,23.8,29.71,NW,315,0.0,0.0,95,0.00,,,0.03,WUHU216DAVISVP2,2013-03-20 03:41:00,
2013-03-19 23:46:00,25.1,23.8,29.71,NNW,331,0.0,0.0,95,0.00,,,0.03,WUHU216DAVISVP2,2013-03-20 03:46:00,
2013-03-19 23:51:00,25.0,23.5,29.71,North,360,0.0,0.0,94,0.00,,,0.03,WUHU216DAVISVP2,2013-03-20 03:51:00,
2013-03-19 23:56:00,25.0,23.5,29.71,NNE,17,0.0,0.0,94,0.00,,,0.03,WUHU216DAVISVP2,2013-03-20 03:56:00,